Temp
1 1 2 2 3 3 3 3 3 3 4 3 3 4 7 8 9 10 10 10 10 10 11 11 11 11 13 12 11 10 10 9 6 9 11 12 11 10 9 4 5 5 6 6
2 2 2 2 2 3 2 3 3 3 2 4 4 6 7 7 8 9 10 10 10 11 10 10 11 11 12 12 11 10 11 8 5 8 10 10 10 10 10 9 7 7 6 7
1 1 1 2 2 2 2 3 3 2 2 2 3 4 5 6 6 7 8 9 10 10 9 10 10 11 12 11 11 10 10 8 7 6 9 9 8 9 9 8 5 7 8 8
0 1 1 1 1 2 2 2 2 2 2 2 2 3 3 4 5 6 7 8 8 8 8 9 9 10 11 10 10 9 8 7 7 8 9 9 8 8 8 8 8 7 8 9
0 1 1 1 1 1 1 2 2 1 2 2 2 3 3 3 4 5 6 6 7 8 8 9 9 9 9 10 9 8 8 6 7 6 8 8 8 9 9 9 9 9 9 10
-1 -1 -1 0 0 1 1 1 1 1 2 2 2 2 3 4 3 4 4 6 5 6 7 8 7 7 8 9 9 7 8 6 5 5 6 7 7 10 11 10 10 9 8 9
-2 -2 -1 -1 -1 -0 -0 -0 -0 -0 1 2 3 4 4 4 5 4 5 5 5 5 6 6 7 8 8 9 9 10 8 7 5 4 5 6 11 11 11 10 9 9 9 8
-2 -2 -2 -2 -1 -1 -1 -1 -1 -1 -0 1 2 3 3 4 4 5 5 5 5 6 6 5 5 6 6 8 8 8 8 7 5 3 5 7 9 10 10 9 8 9 9 8
-2 -2 -3 -2 -2 -2 -2 -2 -2 -2 -2 -0 1 2 2 2 2 3 5 5 6 6 5 4 4 5 7 7 5 4 5 6 5 5 5 7 11 9 9 9 6 9 9 7
-3 -3 -3 -3 -3 -3 -3 -2 -2 -2 -2 -1 -1 -0 0 2 2 2 4 5 5 6 4 3 3 4 7 7 4 3 4 5 4 5 5 6 10 8 9 9 9 9 9 8
-3 -3 -3 -3 -3 -3 -3 -2 -2 -3 -3 -2 -2 -0 -1 -1 1 1 3 3 3 2 2 3 4 4 6 7 7 3 4 3 3 4 4 5 9 8 9 8 9 7 8 8
-3 -3 -3 -3 -3 -3 -3 -3 -2 -2 -3 -3 -2 -2 -2 -1 -1 -0 0 3 2 2 2 3 3 5 7 8 8 7 5 7 5 6 7 9 10 10 10 9 8 7 7 7
-3 -3 -3 -3 -3 -3 -3 -3 -3 -3 -3 -2 -2 -2 1 -0 -1 0 -0 1 2 2 3 2 3 4 7 6 7 7 8 9 6 7 9 8 10 10 9 8 8 8 7 6
-4 -4 -4 -4 -3 -3 -3 -4 -3 -3 -3 -3 -1 -1 -1 -0 0 0 -1 -1 1 2 2 1 1 3 6 8 8 7 6 6 6 6 8 10 10 9 9 8 8 7 7 6
-4 -4 -4 -4 -4 -4 -4 -4 -3 -3 -4 -2 -1 -1 0 1 1 1 1 0 0 0 1 0 2 3 2 4 4 5 6 5 5 6 9 9 8 8 8 8 7 7 6 6
-4 -4 -4 -4 -4 -4 -4 -4 -2 -2 -2 -3 -2 -1 -1 0 0 1 0 1 0 1 1 1 2 4 3 3 4 8 10 9 10 8 9 8 8 8 8 7 7 7 6 6
-5 -5 -4 -4 -4 -4 -4 -3 -2 -2 -3 -3 -3 -1 -1 -1 -1 -1 -0 -0 0 0 0 2 3 4 4 4 4 9 9 9 8 8 8 7 7 7 7 7 7 7 7 6
-5 -5 -5 -4 -4 -4 -4 -2 -2 -2 -4 -3 -3 -1 -1 -1 -1 -1 -1 -1 -1 -0 0 1 3 3 3 3 6 9 9 8 7 7 7 7 7 7 7 7 7 7 6 6
-5 -5 -5 -5 -4 -4 -3 -3 -2 -3 -3 -2 -2 1 1 -1 -1 -1 -1 -0 0 0 1 2 3 2 2 4 7 8 8 7 6 6 6 5 6 6 6 6 7 6 6 5
-5 -5 -5 -4 -3 -3 -3 -2 -2 -2 -2 -2 -1 0 0 -1 -1 -0 -0 -0 1 1 1 3 1 1 6 7 7 7 7 6 6 5 4 5 5 5 5 5 5 5 5 5
-5 -5 -4 -3 -3 -3 -2 -3 -2 -1 -1 -2 -1 0 -1 -0 1 1 -0 1 1 2 1 1 0 1 4 7 7 7 6 5 5 4 4 4 4 4 4 4 4 4 4 4
-5 -4 -4 -4 -4 -4 -4 -1 -1 -0 1 -0 -0 -1 -0 -0 -0 0 -1 1 0 1 0 0 1 1 4 5 3 2 2 3 3 4 4 4 3 3 3 3 3 3 4 4
-5 -5 -5 -5 -4 -4 -2 -1 -0 1 -0 -0 -0 -0 -1 -1 -0 -0 0 1 1 -0 1 1 0 0 0 0 0 0 0 1 2 2 2 2 3 2 2 3 2 3 3 3
-5 -5 -7 -4 -3 -3 -1 -1 -1 -1 -2 -1 0 -1 -0 -1 0 0 1 -1 -0 0 1 -1 -2 -0 -1 -1 -1 -0 -0 0 1 1 1 2 2 2 2 2 3 3 3 3
-5 -5 -4 -4 -2 -3 -3 -2 -2 -2 -2 -1 -1 -0 -0 0 0 0 -2 -1 0 1 -1 -2 -1 -1 -1 -1 -1 -1 -1 -0 -0 0 1 1 1 1 2 2 3 3 2 3
-6 -5 -5 -2 -3 -3 -3 -3 -3 -3 -3 -1 -0 1 1 1 1 -0 -1 -1 -0 -1 -3 -2 -2 -2 -2 -2 -2 -2 -1 -1 -1 -0 0 1 1 1 1 2 2 2 2 2
-5 -5 -4 -4 -4 -4 -4 -5 -4 -4 -4 0 0 2 2 -0 1 2 -1 -1 -1 -3 -3 -3 -3 -3 -3 -3 -2 -2 -2 -1 -1 -0 0 0 -0 0 0 1 1 1 1 1
Height
1514 1513 1514 1516 1518 1519 1517 1520 1523 1523 1525 1531 1527 1524 1524 1525 1519 1519 1519 1518 1515 1513 1510 1508 1507 1505 1499 1500 1504 1507 1506 1504 1508 1493 1478 1478 1481 1485 1487 1508 1500 1493 1486 1456
1513 1514 1514 1515 1515 1517 1517 1517 1520 1522 1523 1522 1519 1520 1520 1521 1519 1518 1516 1515 1511 1509 1511 1513 1501 1499 1498 1501 1503 1504 1501 1505 1514 1493 1484 1479 1481 1479 1479 1481 1479 1475 1483 1445
1514 1514 1513 1513 1514 1516 1516 1517 1518 1520 1520 1519 1521 1520 1516 1517 1515 1515 1515 1513 1511 1510 1509 1509 1502 1500 1497 1499 1501 1503 1504 1502 1503 1503 1486 1483 1483 1474 1475 1478 1486 1468 1458 1439
1514 1513 1514 1512 1512 1513 1514 1513 1512 1512 1515 1516 1518 1520 1519 1514 1513 1512 1512 1507 1508 1509 1507 1506 1502 1499 1495 1494 1495 1499 1503 1501 1497 1489 1482 1479 1476 1470 1467 1470 1462 1467 1444 1441
1514 1513 1514 1512 1512 1511 1513 1512 1513 1512 1511 1511 1514 1515 1514 1516 1514 1513 1508 1506 1506 1506 1507 1506 1503 1499 1497 1493 1492 1497 1497 1500 1494 1491 1479 1474 1468 1458 1458 1454 1450 1446 1440 1432
1513 1513 1513 1512 1511 1511 1510 1510 1511 1511 1508 1509 1511 1510 1509 1509 1512 1510 1509 1508 1508 1507 1505 1503 1504 1501 1497 1494 1492 1492 1494 1499 1499 1490 1479 1474 1466 1447 1443 1443 1441 1439 1439 1431
1512 1512 1512 1511 1511 1511 1511 1510 1510 1510 1505 1505 1505 1505 1505 1505 1505 1504 1503 1505 1504 1504 1503 1503 1498 1495 1489 1485 1483 1483 1487 1491 1498 1496 1486 1478 1442 1437 1437 1440 1436 1432 1430 1430
1510 1510 1510 1509 1509 1509 1510 1510 1511 1509 1504 1503 1503 1503 1500 1499 1499 1496 1496 1498 1499 1500 1501 1500 1496 1488 1479 1471 1474 1476 1479 1487 1494 1501 1487 1462 1441 1438 1438 1440 1435 1429 1430 1431
1508 1508 1508 1508 1508 1507 1507 1508 1509 1509 1504 1497 1500 1499 1498 1496 1493 1492 1490 1491 1493 1495 1495 1499 1491 1488 1473 1469 1475 1475 1477 1479 1489 1489 1487 1469 1436 1436 1438 1439 1445 1429 1428 1429
1507 1506 1505 1505 1505 1505 1506 1505 1506 1505 1499 1491 1495 1493 1494 1493 1491 1488 1486 1483 1484 1485 1487 1489 1487 1481 1474 1470 1476 1482 1483 1483 1483 1484 1482 1458 1435 1434 1437 1440 1439 1428 1425 1426
1503 1503 1503 1502 1502 1503 1503 1501 1502 1502 1495 1484 1489 1486 1485 1486 1487 1487 1477 1480 1475 1481 1479 1480 1475 1471 1464 1460 1457 1465 1471 1479 1481 1485 1480 1468 1428 1435 1436 1431 1428 1427 1424 1422
1498 1498 1498 1498 1499 1499 1499 1497 1497 1496 1492 1477 1477 1475 1474 1475 1476 1483 1476 1472 1471 1467 1471 1468 1465 1461 1451 1447 1444 1445 1456 1447 1454 1451 1440 1426 1425 1425 1426 1426 1426 1424 1424 1422
1492 1492 1492 1493 1493 1494 1494 1492 1491 1490 1483 1469 1462 1455 1457 1459 1458 1464 1469 1462 1465 1459 1460 1460 1462 1456 1443 1445 1438 1438 1435 1434 1438 1437 1422 1422 1423 1423 1424 1424 1424 1423 1422 1422
1486 1486 1487 1487 1488 1488 1487 1486 1486 1486 1481 1469 1444 1451 1447 1447 1447 1446 1445 1446 1454 1456 1454 1457 1459 1448 1436 1426 1428 1426 1428 1429 1431 1429 1420 1420 1420 1420 1421 1421 1421 1421 1421 1420
1481 1481 1481 1481 1481 1481 1480 1477 1475 1475 1478 1458 1445 1439 1436 1436 1435 1434 1434 1437 1444 1443 1443 1448 1447 1444 1445 1431 1424 1426 1422 1424 1427 1424 1414 1415 1416 1418 1418 1418 1418 1419 1420 1420
1474 1474 1475 1475 1475 1475 1475 1470 1465 1462 1459 1458 1445 1428 1420 1421 1422 1423 1425 1428 1436 1431 1433 1439 1438 1434 1437 1425 1422 1410 1411 1414 1414 1414 1414 1414 1415 1416 1416 1416 1416 1417 1418 1418
1467 1467 1468 1468 1468 1469 1468 1464 1461 1457 1457 1460 1446 1422 1412 1412 1414 1416 1418 1422 1424 1427 1431 1428 1427 1426 1425 1420 1417 1407 1409 1411 1412 1412 1413 1414 1414 1414 1415 1414 1414 1414 1415 1417
1459 1460 1460 1460 1459 1458 1453 1451 1451 1456 1459 1456 1445 1422 1415 1413 1412 1413 1412 1415 1419 1422 1424 1422 1419 1420 1417 1416 1405 1405 1406 1407 1407 1409 1410 1411 1411 1412 1413 1412 1412 1412 1413 1414
1452 1453 1453 1451 1448 1445 1441 1441 1440 1441 1447 1437 1427 1414 1407 1406 1407 1407 1409 1410 1413 1415 1415 1412 1412 1411 1411 1400 1399 1401 1402 1403 1404 1406 1407 1408 1409 1410 1410 1411 1410 1410 1411 1412
1446 1447 1448 1443 1439 1437 1437 1434 1433 1430 1424 1420 1411 1407 1405 1407 1403 1403 1405 1404 1403 1406 1407 1404 1406 1401 1393 1394 1395 1397 1400 1401 1402 1403 1405 1405 1406 1407 1408 1408 1408 1408 1409 1410
1439 1440 1438 1435 1434 1434 1432 1425 1418 1409 1405 1401 1396 1399 1397 1400 1397 1397 1399 1397 1399 1398 1399 1401 1398 1394 1386 1389 1391 1392 1395 1397 1398 1400 1402 1402 1403 1404 1405 1405 1405 1405 1406 1407
1433 1434 1433 1431 1430 1428 1425 1409 1400 1394 1387 1383 1384 1386 1389 1393 1393 1394 1396 1395 1398 1395 1395 1397 1391 1383 1379 1381 1384 1386 1389 1393 1395 1397 1398 1398 1399 1400 1401 1402 1401 1401 1402 1404
1430 1432 1430 1426 1422 1416 1405 1393 1386 1382 1378 1379 1378 1381 1384 1388 1389 1389 1391 1392 1394 1395 1395 1391 1386 1379 1379 1380 1382 1386 1388 1390 1392 1394 1395 1395 1396 1397 1398 1399 1398 1399 1400 1402
1426 1426 1426 1413 1401 1396 1387 1386 1386 1385 1381 1379 1376 1376 1378 1381 1383 1385 1386 1392 1393 1392 1386 1389 1379 1379 1380 1381 1383 1385 1387 1388 1390 1392 1393 1393 1393 1395 1396 1397 1397 1397 1398 1400
1422 1420 1411 1398 1391 1389 1388 1386 1385 1382 1379 1377 1374 1372 1373 1375 1379 1380 1388 1391 1385 1382 1382 1374 1374 1376 1379 1380 1382 1385 1386 1388 1390 1392 1392 1392 1394 1395 1395 1396 1396 1397 1399 1401
1417 1413 1404 1395 1392 1389 1388 1385 1382 1379 1376 1371 1370 1367 1366 1367 1369 1375 1378 1381 1377 1373 1375 1376 1378 1379 1380 1381 1383 1385 1387 1389 1391 1391 1392 1393 1395 1395 1396 1396 1397 1399 1400 1402
1410 1404 1400 1399 1396 1392 1388 1386 1381 1378 1375 1365 1364 1360 1358 1365 1365 1366 1369 1372 1371 1373 1375 1377 1379 1379 1381 1384 1386 1388 1389 1390 1391 1392 1394 1396 1397 1398 1398 1398 1400 1401 1403 1405
Wind_Speed
7 8 10 8 8 8 10 10 4 6 15 7 5 5 4 5 14 7 6 4 6 5 9 9 6 7 4 7 8 4 7 4 5 8 16 8 3 4 6 3 6 5 7 17
5 6 9 9 7 9 11 5 4 7 16 4 8 8 11 14 15 13 5 6 7 5 7 6 7 9 6 3 5 3 2 4 5 8 2 1 3 5 6 8 5 16 9 11
5 4 5 7 9 10 11 4 3 6 16 9 2 2 9 16 8 5 10 12 14 11 12 10 7 6 1 6 10 6 2 4 7 8 11 11 19 19 12 8 4 11 17 26
6 5 5 4 9 11 13 5 3 4 3 9 9 7 5 4 6 10 9 7 15 13 11 10 15 13 14 8 10 6 3 6 9 13 15 17 19 23 19 14 15 10 23 21
6 6 5 4 7 8 10 4 3 3 5 0 12 13 10 18 13 8 9 12 9 8 12 15 17 17 14 7 6 6 6 5 7 12 16 16 16 16 14 18 17 17 16 16
8 7 7 6 5 8 4 5 7 7 6 4 4 4 7 10 9 11 22 20 13 15 13 18 19 26 28 18 10 8 5 3 3 6 9 14 9 5 3 5 7 8 8 8
9 11 13 10 8 7 7 7 7 2 2 6 8 10 14 14 16 16 19 19 11 9 15 19 20 24 26 24 18 12 6 4 2 5 7 3 3 5 4 6 11 11 7 8
8 9 8 8 10 9 8 6 7 3 3 7 10 17 13 18 20 21 24 24 28 26 24 11 10 8 8 15 14 14 10 6 3 3 4 10 11 2 0 2 7 3 5 7
9 9 8 9 9 9 11 8 10 11 7 6 12 18 18 13 13 15 25 27 27 28 11 7 6 8 6 4 2 5 5 6 5 3 4 5 2 4 3 3 4 5 6 5
12 13 11 10 9 9 9 11 10 13 15 23 25 14 11 13 14 10 21 18 20 26 11 10 10 11 4 14 6 4 3 4 13 10 4 8 7 6 6 2 3 13 14 9
15 15 16 15 11 9 12 16 13 16 19 31 31 37 33 19 20 11 16 7 9 3 7 7 7 6 9 13 8 9 10 8 5 4 6 9 13 4 5 2 6 13 12 10
18 18 18 16 14 11 14 20 16 17 23 34 34 28 26 34 40 39 25 15 6 9 4 5 4 8 6 16 15 6 5 6 5 10 7 2 14 1 4 3 7 8 7 9
19 18 18 17 16 15 16 19 21 23 26 38 35 40 48 41 45 51 33 33 26 12 12 1 2 10 10 7 7 5 4 8 3 3 6 10 13 15 12 3 7 8 5 7
19 20 20 20 21 19 19 24 24 25 18 10 25 25 31 29 31 34 46 56 25 27 20 8 4 3 12 13 9 5 5 8 6 5 7 5 11 11 9 6 7 6 5 7
20 20 21 20 21 21 22 27 30 31 29 12 15 28 41 43 32 28 35 42 36 17 8 4 5 6 6 6 2 3 7 6 5 5 6 4 3 9 5 5 3 4 4 5
23 21 21 21 21 21 19 12 5 2 6 10 5 13 21 22 26 33 35 33 27 12 8 5 7 15 4 4 4 4 23 15 14 4 3 5 7 4 3 2 3 4 3 4
24 24 23 24 24 24 22 11 7 17 21 8 7 6 5 13 22 22 21 25 14 13 5 8 5 8 14 3 3 4 7 12 13 11 8 5 6 4 3 6 5 5 4 3
22 21 23 26 25 28 32 36 38 35 33 14 4 5 3 10 5 5 14 12 12 12 6 6 5 5 4 4 6 13 9 8 9 10 10 8 6 6 7 7 8 7 6 5
21 21 25 26 28 22 26 18 14 20 21 6 7 4 5 13 8 6 8 9 3 8 4 4 6 4 5 7 12 13 16 11 7 11 12 11 11 11 9 9 9 10 9 8
22 19 12 7 9 17 19 15 9 12 17 15 4 5 3 9 8 6 5 6 3 4 5 7 3 3 15 15 10 9 11 14 12 9 8 8 8 7 7 8 9 10 10 9
15 8 9 16 18 22 7 6 7 10 4 10 13 21 4 9 3 3 5 2 3 3 4 5 4 3 6 21 23 23 18 14 12 12 10 8 9 11 13 13 12 11 10 10
10 6 11 15 6 6 6 5 5 5 5 9 6 7 9 8 5 2 4 2 2 4 4 2 4 3 9 16 14 13 14 15 13 12 12 12 11 10 10 10 10 10 11 10
13 5 4 5 9 8 7 6 4 3 1 5 9 5 10 6 6 3 2 4 3 6 3 4 4 5 6 7 7 7 8 9 10 10 9 8 7 7 7 6 4 5 7 8
6 5 5 5 5 5 2 3 2 4 8 11 15 5 3 5 3 2 4 2 3 4 4 5 2 13 10 7 7 7 6 5 5 5 4 3 3 4 4 3 2 3 4 6
5 5 5 5 6 5 10 10 9 10 17 15 5 2 5 3 3 2 3 3 4 5 5 2 10 12 10 9 8 8 7 7 6 5 4 4 3 3 3 2 2 3 4 5
5 7 6 9 6 3 10 12 12 14 18 10 5 3 3 3 3 4 5 6 5 2 2 10 14 13 11 11 10 9 9 9 8 8 9 8 8 8 8 7 7 7 7 7
5 7 8 10 12 11 9 18 11 19 13 3 2 4 2 3 3 4 0 3 1 9 14 13 14 15 13 13 13 13 12 13 13 13 13 12 12 12 11 13 12 11 11 10
Wind_Direction
311 247 254 261 256 240 200 189 203 205 202 185 201 216 218 252 282 265 258 295 275 280 307 294 267 254 295 124 145 206 208 281 284 249 273 271 185 269 273 142 258 246 281 273
300 261 244 246 230 221 192 192 231 188 190 229 226 232 251 237 250 255 231 241 236 275 285 286 237 247 99 163 180 256 136 244 309 315 23 94 207 229 277 281 278 273 283 275
328 302 241 230 231 226 213 200 200 175 208 226 213 310 247 244 227 263 274 272 280 278 269 261 276 301 176 202 230 256 13 246 220 239 265 309 293 287 283 274 261 277 258 285
359 339 299 256 230 222 214 221 245 194 190 220 239 243 307 291 248 204 256 242 242 256 263 263 261 254 264 202 205 173 210 256 256 264 274 284 282 280 282 260 257 252 276 290
298 309 307 279 250 240 227 241 207 240 295 345 207 230 245 265 284 279 240 243 258 275 266 264 279 297 300 295 135 163 213 269 309 292 270 269 279 275 264 265 269 261 271 282
293 297 301 296 284 247 249 258 261 253 206 192 205 215 220 226 208 248 245 263 261 268 272 303 304 300 295 289 278 191 200 210 321 267 345 310 285 266 230 265 270 270 279 290
290 286 284 284 291 277 265 291 294 298 249 236 244 256 253 251 249 242 264 272 282 265 302 309 299 282 276 267 261 240 237 198 214 285 311 267 231 246 220 256 274 280 269 330
314 324 321 294 279 274 268 285 313 268 263 261 287 279 279 290 289 276 262 257 258 268 281 290 293 288 264 239 231 227 218 216 254 245 274 284 291 217 296 26 303 16 332 314
288 290 302 313 313 299 284 266 267 269 281 232 256 275 276 273 274 279 273 269 264 261 243 248 237 236 294 202 59 15 324 187 184 203 242 255 274 182 132 126 294 343 324 315
289 295 286 278 289 310 295 285 269 262 270 269 259 250 255 260 264 278 281 267 270 240 236 237 231 240 251 258 196 156 154 204 222 225 269 279 261 134 151 54 256 320 321 332
277 284 291 291 278 278 286 285 276 273 271 273 268 259 266 262 260 256 259 307 237 174 215 226 225 239 229 235 217 171 171 171 184 204 217 262 172 117 197 213 323 336 327 334
265 266 270 277 284 268 275 276 285 284 266 264 275 261 259 252 253 255 264 261 256 194 209 218 216 242 242 222 244 192 193 199 184 193 211 262 183 209 240 323 320 334 323 320
278 276 276 279 275 274 276 283 284 289 280 286 275 264 273 275 259 249 245 250 241 210 201 136 269 252 210 229 235 186 249 187 228 149 252 221 227 259 265 284 321 325 297 308
272 275 277 275 279 279 280 278 277 277 279 269 282 282 269 277 278 255 241 238 242 235 207 206 232 287 300 222 221 220 181 141 194 256 284 271 233 246 226 273 316 321 311 312
264 271 276 280 278 283 286 283 278 270 247 259 280 276 274 282 272 257 244 233 224 205 159 189 226 230 253 274 87 223 184 193 177 220 203 145 136 179 227 298 331 330 299 299
264 267 277 282 282 281 287 302 263 193 328 260 276 288 279 288 251 232 220 216 221 200 170 187 221 227 211 236 187 222 209 208 220 197 170 131 159 237 262 298 329 328 317 283
264 268 273 277 276 275 257 234 248 236 320 327 295 288 303 255 229 217 207 208 207 201 212 210 233 222 198 256 212 166 193 222 238 241 234 240 232 219 268 308 305 302 314 290
262 267 274 276 277 276 271 263 266 267 271 244 239 258 280 194 206 185 180 173 175 190 212 227 198 211 224 241 227 247 244 207 215 225 217 219 201 227 286 284 296 303 301 293
263 270 276 281 279 268 265 262 269 222 217 222 213 230 258 184 195 174 171 164 163 195 204 221 172 193 218 216 206 223 229 233 218 214 230 239 251 267 270 273 286 287 278 275
260 265 269 253 240 246 258 265 229 214 217 233 246 238 234 202 177 183 169 186 174 181 216 169 214 246 221 226 225 225 223 234 225 211 226 230 243 254 258 271 282 282 272 259
240 229 228 244 265 297 254 244 222 203 210 207 219 209 165 216 208 147 206 183 157 189 214 177 220 236 216 226 234 243 238 225 221 225 235 241 257 268 274 277 272 262 259 255
207 228 271 288 248 230 240 218 216 218 229 190 180 170 167 173 176 139 186 180 143 244 142 178 251 218 184 199 194 204 222 224 229 239 251 262 270 272 273 277 275 254 244 249
233 244 243 217 220 227 232 207 216 230 220 195 164 152 161 159 181 130 170 180 194 132 190 223 234 163 163 184 193 201 211 211 218 231 241 252 257 259 261 269 267 230 233 240
200 204 252 233 203 231 227 355 321 283 278 262 184 150 170 157 156 136 178 106 144 211 218 232 196 160 163 170 167 163 160 163 174 189 209 222 236 239 233 245 248 240 222 204
209 218 245 240 325 328 301 316 298 297 294 287 206 168 162 148 148 157 108 156 220 209 219 207 137 145 146 141 139 147 141 139 143 143 118 102 109 130 143 139 123 127 151 166
226 238 278 311 307 325 329 319 307 326 332 265 212 199 187 160 144 153 198 163 218 219 91 123 132 127 126 128 136 136 132 132 129 118 110 106 101 99 102 106 110 115 121 134
235 245 264 288 289 274 299 310 309 312 314 244 206 214 139 101 162 170 198 195 74 114 104 119 127 124 122 121 126 126 125 119 111 108 106 103 99 99 104 102 97 102 107 115